[[{"header":{"parameterUnit":"m.s-1","parameterCategory":1,"la1":30.2991,"la2":30.254,"lo1":-89.0895,"lo2":-89.0444,"dy":0.0017,"dx":0.0017,"nx":28,"ny":28,"refTime":"2024-05-12T21:00:00:Z","depth":0,"parameterNumber":2,"parameterNumberName":"U-component_of_WINDS"},"data":[0,0,0,0,0,0,0,0,0,0,0,0,0,0,0,0,0,0,0,0,0,0,0,0,0,0,0,0,0,0,0,0,0,0,0,0,0,0,0,0,0,0,0,0,0,0,0,0,0,0,0,0,0,0,0,0,0,0,0.869,0.8685,0,0.8222,0.8216,0.8211,0.797,0.797,0.797,0.797,0.7487,0.7474,0.7462,0,0,0,0,0,0,0,0,0,0,0,0,0,0.9369,0.9358,0.8691,0.8685,0.8679,0.8222,0.8216,0.821,0.797,0.797,0.797,0.797,0.7491,0.7476,0.7461,0,0,0,0,0,0,0,0,0,0,0,0,0,0.9005,0.9354,0.8692,0.8505,0.8483,0.8224,0.8216,0.8208,0.797,0.797,0.797,0.7969,0.7496,0.7477,0.7459,0.7348,0,0,0.7401,0.7392,0,0,0,0,0,0,0,0,0.9026,0.898,0.8538,0.8517,0.8493,0.8154,0.8278,0.792,0.7971,0.8165,0.797,0.7969,0.7709,0.7672,0.7585,0.7326,0.7305,0.7399,0.7387,0.7379,0.7374,0,0,0,0,0,0,0,0.9052,0.8999,0.8505,0.8532,0.8504,0.8441,0.8389,0.8209,0.7945,0.8148,0.813,0.8078,0.7696,0.7604,0.7572,0.7298,0.7399,0.7383,0.7371,0.7363,0.6914,0.6913,0,0,0,0,0,0,0.9108,0.9022,0.852,0.8491,0.8764,0.8429,0.8371,0.8263,0.7946,0.7897,0.8078,0.8068,0.7636,0.7594,0.7554,0.7398,0.7379,0.7362,0.7351,0.6914,0.6913,0.6913,0,0,0,0,0,0,0.9124,0.9066,0.8539,0.8751,0.8679,0.8418,0.8299,0.8254,0.8161,0.7893,0.7844,0.8033,0.7634,0.7581,0.7399,0.7378,0.7353,0.7336,0.6915,0.6914,0.6913,0.709,0,0,0,0,0,0,0.9144,0.9073,0.9031,0.8752,0.8669,0.8396,0.8298,0.8245,0.813,0.8112,0.7838,0.7792,0.763,0.7429,0.738,0.7351,0.7321,0.6916,0.6914,0.6913,0.7085,0.7095,0.7104,0,0,0,0,0,0.9169,0.9101,0.9031,0.8971,0.8612,0.8395,0.8347,0.8164,0.813,0.8083,0.7908,0.7801,0.7388,0.7412,0.7356,0.7321,0.6916,0.6915,0.6914,0.708,0.7093,0.7104,0,0,0,0,0,0,0.9387,0.9062,0.898,0.882,0.8637,0.8355,0.8292,0.8184,0.8007,0.7997,0.7775,0.7715,0.7552,0.7418,0.7451,0.7192,0.714,0.7128,0.7287,0.7296,0.7306,0.7342,0.7305,0,0,0,0,0,0.9416,0.9269,0.8992,0.8878,0.8789,0.8557,0.8456,0.8329,0.813,0.8052,0.7864,0.7674,0.7499,0.7391,0.7217,0.7063,0.6996,0.701,0.702,0.7029,0.7021,0.6921,0.6923,0.6909,0.6909,0.6909,0,0,0.9475,0.9279,0.9201,0.8916,0.8759,0.8608,0.8494,0.8341,0.8225,0.8028,0.7844,0.7699,0.7471,0.7301,0.7217,0.7184,0.7009,0.7027,0.7037,0.7023,0.692,0.6922,0.6923,0.6908,0.6908,0.6908,0,0,0.9506,0.9345,0.9228,0.9072,0.8835,0.8679,0.8651,0.8382,0.8278,0.809,0.7936,0.7793,0.7501,0.7342,0.7224,0.7183,0.7074,0.7132,0.7183,0.7089,0.709,0.709,0.7071,0.7067,0.7125,0.7125,0.7125,0,0.961,0.9379,0.9182,0.9035,0.8911,0.8723,0.8599,0.8457,0.8176,0.8093,0.8059,0.7682,0.7516,0.7302,0.7292,0.7203,0.716,0.7164,0.7106,0.7104,0.7101,0.708,0.7074,0.7133,0.7133,0.7132,0.7131,0,0.9514,0.9356,0.9289,0.902,0.8888,0.8755,0.8534,0.8423,0.8305,0.8151,0.7957,0.7749,0.7526,0.7466,0.7351,0.7233,0.7219,0.7149,0.7093,0.7114,0.709,0.7081,0.7145,0.7142,0.714,0.7138,0,0,0.9676,0.9293,0.9271,0.9143,0.8863,0.8735,0.8588,0.8369,0.8276,0.8086,0.7954,0.7706,0.7636,0.7502,0.7366,0.7284,0.7257,0.7221,0.7212,0.7232,0.7107,0.7161,0.7155,0.7182,0.718,0.7178,0.7125,0,0.9664,0.9396,0.921,0.9013,0.8859,0.8673,0.8544,0.8356,0.8206,0.8051,0.7883,0.771,0.7634,0.755,0.746,0.728,0.7229,0.7281,0.7054,0.7049,0.7117,0.7143,0.7202,0.7162,0.7115,0.7113,0.7112,0,0.9618,0.943,0.9218,0.8945,0.8874,0.8763,0.8542,0.8397,0.8177,0.8072,0.7918,0.7776,0.7608,0.7565,0.7327,0.7367,0.7262,0.7158,0.7152,0.7123,0.7082,0.7113,0.7145,0.7139,0.7096,0.7097,0.7099,0,0.9752,0.9446,0.9277,0.9173,0.8853,0.8777,0.864,0.8419,0.8296,0.8102,0.8018,0.7808,0.7692,0.753,0.7333,0.7321,0.7113,0.7056,0.7018,0.7023,0.6984,0.6989,0.6998,0.692,0.692,0.692,0.692,0,0.9759,0.9636,0.9331,0.9228,0.908,0.8864,0.8723,0.857,0.8373,0.8232,0.8057,0.7928,0.7677,0.7515,0.736,0.7182,0.7132,0.704,0.7,0.7055,0.7067,0.6983,0.698,0.6918,0.6918,0.6919,0.6919,0,0.9886,0.9679,0.948,0.9191,0.9114,0.9018,0.8768,0.8657,0.8494,0.8317,0.8263,0.8007,0.7807,0.7594,0.7323,0.7217,0.7046,0.6991,0.7121,0.7098,0.7071,0.7076,0.7026,0.7006,0.6946,0.6947,0.6947,0,0.9905,0.9804,0.9501,0.9394,0.9261,0.9091,0.8963,0.8743,0.8616,0.8351,0.8271,0.8057,0.7875,0.7562,0.735,0.7139,0.7076,0.7072,0.7043,0.7099,0.7071,0.7079,0.7065,0.7083,0.7085,0.7086,0.7087,0,0.9958,0.9857,0.9681,0.9464,0.9316,0.9136,0.8948,0.887,0.8611,0.8477,0.8269,0.8127,0.7846,0.7634,0.7395,0.7249,0.7123,0.7097,0.7076,0.7132,0.721,0.7163,0.7145,0.71,0.7099,0.7098,0.7097,0.7097,1.0028,0.9927,0.9696,0.9502,0.9336,0.9163,0.9042,0.8861,0.8685,0.8439,0.8318,0.811,0.7881,0.7547,0.7403,0.7233,0.7196,0.7169,0.7161,0.7157,0.7169,0.7237,0.719,0.7189,0.7188,0.7188,0.7187,0,1.0069,0.9909,0.9733,0.9474,0.9319,0.9212,0.8996,0.8873,0.8692,0.849,0.8312,0.8068,0.7859,0.7628,0.7403,0.7311,0.7247,0.7259,0.7263,0.723,0.7217,0.7255,0.7314,0.7314,0.7314,0.7314,0.7314,0.7314,1.0073,0.9894,0.9765,0.9499,0.9337,0.9132,0.9017,0.8853,0.869,0.8426,0.8251,0.81,0.7883,0.764,0.7441,0.7377,0.7302,0.733,0.725,0.7242,0.7232,0.7223,0.7258,0.7316,0.7316,0.7277,0.7276,0.7276]},{"header":{"parameterUnit":"m.s-1","parameterCategory":1,"la1":30.2991,"la2":30.254,"lo1":-89.0895,"lo2":-89.0444,"dy":0.0017,"dx":0.0017,"nx":28,"ny":28,"refTime":"2024-05-12T21:00:00:Z","depth":0,"parameterNumber":3,"parameterNumberName":"V-component_of_WINDS"},"data":[0,0,0,0,0,0,0,0,0,0,0,0,0,0,0,0,0,0,0,0,0,0,0,0,0,0,0,0,0,0,0,0,0,0,0,0,0,0,0,0,0,0,0,0,0,0,0,0,0,0,0,0,0,0,0,0,0,0,-3.6887,-3.6885,0,-3.6643,-3.664,-3.6637,-3.6476,-3.6475,-3.6474,-3.6473,-3.6212,-3.6207,-3.6201,0,0,0,0,0,0,0,0,0,0,0,0,0,-3.7184,-3.718,-3.6888,-3.6884,-3.6881,-3.6643,-3.664,-3.6637,-3.6476,-3.6475,-3.6474,-3.6473,-3.6214,-3.6207,-3.62,0,0,0,0,0,0,0,0,0,0,0,0,0,-3.7009,-3.7178,-3.6888,-3.6773,-3.676,-3.6644,-3.664,-3.6636,-3.6477,-3.6475,-3.6473,-3.6472,-3.6217,-3.6208,-3.6199,-3.6175,0,0,-3.6172,-3.6168,0,0,0,0,0,0,0,0,-3.7019,-3.6998,-3.6793,-3.6781,-3.6766,-3.6589,-3.6649,-3.6481,-3.6477,-3.6584,-3.6473,-3.6471,-3.6338,-3.6319,-3.6276,-3.6163,-3.6152,-3.6171,-3.6165,-3.6162,-3.6159,0,0,0,0,0,0,0,-3.7032,-3.7008,-3.679,-3.679,-3.6773,-3.6723,-3.6696,-3.6616,-3.6472,-3.6574,-3.6562,-3.6536,-3.633,-3.6285,-3.6269,-3.6148,-3.6171,-3.6163,-3.6158,-3.6154,-3.5969,-3.5969,0,0,0,0,0,0,-3.7065,-3.7019,-3.6798,-3.6783,-3.6892,-3.6719,-3.6689,-3.6647,-3.6473,-3.6445,-3.6538,-3.6529,-3.6301,-3.628,-3.6259,-3.62,-3.6162,-3.6153,-3.6148,-3.5968,-3.5969,-3.5969,0,0,0,0,0,0,-3.7072,-3.7047,-3.6808,-3.6897,-3.6863,-3.6716,-3.6669,-3.6643,-3.6598,-3.6445,-3.6417,-3.652,-3.6299,-3.6272,-3.619,-3.6189,-3.6149,-3.6141,-3.5968,-3.5968,-3.5969,-3.6095,0,0,0,0,0,0,-3.7081,-3.7051,-3.705,-3.6899,-3.6859,-3.6754,-3.667,-3.6639,-3.6584,-3.6571,-3.6421,-3.6395,-3.6296,-3.6205,-3.6182,-3.6176,-3.6134,-3.5967,-3.5968,-3.5969,-3.609,-3.61,-3.6108,0,0,0,0,0,-3.7093,-3.7099,-3.7051,-3.7025,-3.6856,-3.6755,-3.6731,-3.6621,-3.6586,-3.6575,-3.6471,-3.6399,-3.6193,-3.6198,-3.6171,-3.6163,-3.5967,-3.5968,-3.5969,-3.6086,-3.6098,-3.6108,0,0,0,0,0,0,-3.7256,-3.7078,-3.7023,-3.6982,-3.6884,-3.6728,-3.6715,-3.6641,-3.655,-3.6542,-3.6403,-3.637,-3.6297,-3.6222,-3.6231,-3.6113,-3.6069,-3.6065,-3.6168,-3.6178,-3.6186,-3.6204,-3.6127,0,0,0,0,0,-3.7287,-3.7228,-3.7072,-3.705,-3.7003,-3.6866,-3.682,-3.674,-3.6632,-3.659,-3.6482,-3.6375,-3.6281,-3.6226,-3.6136,-3.6076,-3.6029,-3.6054,-3.6063,-3.6071,-3.6068,-3.6005,-3.6008,-3.5973,-3.5973,-3.5973,0,0,-3.7352,-3.7246,-3.7219,-3.7079,-3.6995,-3.6923,-3.6834,-3.677,-3.671,-3.6579,-3.6493,-3.6407,-3.6275,-3.6198,-3.616,-3.6133,-3.6065,-3.6072,-3.608,-3.6072,-3.6006,-3.601,-3.6013,-3.5973,-3.5973,-3.5973,0,0,-3.7431,-3.7353,-3.7315,-3.7227,-3.7097,-3.7001,-3.6991,-3.684,-3.6777,-3.6687,-3.6579,-3.6501,-3.6354,-3.6256,-3.6188,-3.6198,-3.612,-3.6172,-3.6218,-3.6159,-3.6161,-3.6163,-3.615,-3.6149,-3.617,-3.617,-3.617,0,-3.7527,-3.7425,-3.7305,-3.7238,-3.717,-3.7042,-3.6991,-3.6911,-3.6757,-3.6707,-3.668,-3.6471,-3.6376,-3.6262,-3.6262,-3.6217,-3.6186,-3.619,-3.6172,-3.6172,-3.6171,-3.6157,-3.6154,-3.6176,-3.6175,-3.6175,-3.6174,0,-3.7538,-3.7465,-3.7448,-3.7297,-3.7227,-3.7171,-3.7028,-3.6969,-3.6888,-3.679,-3.6685,-3.6562,-3.6432,-3.6399,-3.6326,-3.6266,-3.6251,-3.62,-3.6151,-3.6183,-3.6166,-3.6161,-3.6185,-3.6183,-3.6181,-3.6179,0,0,-3.7729,-3.7495,-3.749,-3.7408,-3.7243,-3.7178,-3.7103,-3.6975,-3.6918,-3.6809,-3.6731,-3.6594,-3.6537,-3.6458,-3.6368,-3.6317,-3.6306,-3.6267,-3.6261,-3.6267,-3.621,-3.6245,-3.6242,-3.6253,-3.6251,-3.625,-3.6216,0,-3.7773,-3.7642,-3.7519,-3.7426,-3.7343,-3.7207,-3.7138,-3.702,-3.692,-3.6826,-3.6713,-3.6612,-3.6554,-3.6501,-3.6444,-3.6321,-3.6292,-3.6322,-3.6166,-3.6162,-3.6198,-3.6236,-3.6279,-3.6254,-3.6211,-3.621,-3.6209,0,-3.7815,-3.7704,-3.7602,-3.742,-3.7381,-3.7324,-3.718,-3.7099,-3.6952,-3.688,-3.6779,-3.6679,-3.6574,-3.6534,-3.6378,-3.64,-3.6325,-3.6252,-3.6247,-3.6225,-3.6186,-3.6204,-3.6246,-3.6238,-3.6201,-3.6201,-3.6202,0,-3.7944,-3.777,-3.768,-3.7616,-3.7408,-3.7365,-3.7275,-3.7127,-3.7048,-3.692,-3.6863,-3.6726,-3.6648,-3.6535,-3.6391,-3.6379,-3.6242,-3.6196,-3.6167,-3.617,-3.6146,-3.6148,-3.6166,-3.6111,-3.6111,-3.6111,-3.6111,0,-3.8005,-3.7944,-3.7732,-3.7678,-3.7595,-3.7445,-3.7365,-3.7261,-3.7126,-3.7035,-3.6908,-3.6823,-3.6643,-3.653,-3.6416,-3.6291,-3.6261,-3.6189,-3.6158,-3.6197,-3.6204,-3.6144,-3.6138,-3.611,-3.611,-3.6111,-3.6111,0,-3.814,-3.7998,-3.7887,-3.7691,-3.7639,-3.7586,-3.7412,-3.7342,-3.7227,-3.7111,-3.7075,-3.6891,-3.675,-3.6594,-3.6405,-3.6325,-3.6202,-3.6165,-3.6253,-3.6234,-3.6208,-3.6208,-3.6183,-3.6163,-3.6132,-3.6132,-3.6133,0,-3.8185,-3.8133,-3.7926,-3.7856,-3.7768,-3.766,-3.7574,-3.7415,-3.733,-3.7143,-3.7091,-3.6939,-3.6811,-3.6587,-3.6429,-3.6274,-3.6225,-3.6225,-3.6202,-3.6233,-3.6207,-3.6209,-3.6194,-3.6233,-3.6234,-3.6235,-3.6236,0,-3.8274,-3.82,-3.8087,-3.794,-3.7841,-3.7718,-3.7589,-3.7536,-3.7348,-3.7254,-3.7107,-3.7006,-3.68,-3.6644,-3.6465,-3.6357,-3.6257,-3.6243,-3.6225,-3.6262,-3.631,-3.6268,-3.6263,-3.6245,-3.6244,-3.6244,-3.6243,-3.6243,-3.8356,-3.8294,-3.8133,-3.8003,-3.7886,-3.7762,-3.7681,-3.7549,-3.7425,-3.7247,-3.7157,-3.7004,-3.6831,-3.658,-3.6472,-3.634,-3.6311,-3.6291,-3.6283,-3.6278,-3.628,-3.6334,-3.6308,-3.6307,-3.6307,-3.6307,-3.6306,0,-3.8427,-3.8312,-3.8193,-3.8011,-3.7901,-3.7818,-3.7663,-3.7574,-3.7443,-3.7293,-3.7162,-3.6978,-3.6819,-3.6641,-3.6466,-3.6393,-3.634,-3.6351,-3.6352,-3.6323,-3.6325,-3.6351,-3.6394,-3.6394,-3.6394,-3.6394,-3.6394,-3.6394,-3.8451,-3.8336,-3.8238,-3.8053,-3.7935,-3.7787,-3.7702,-3.7579,-3.7455,-3.7257,-3.7123,-3.7008,-3.6837,-3.6645,-3.6487,-3.6437,-3.6373,-3.6394,-3.6329,-3.6334,-3.6327,-3.632,-3.6344,-3.6384,-3.6384,-3.6336,-3.6336,-3.6336]}]]